Weather in Zaozerye

Russia / Komi Republic     60°54′33″N   50°18′08″E
temp.,
°C
wind,
m/s
gust,
m/s
humid.,
%
clouds,
%
prec.,
mm/h
press.,
hPa
HPBL,
m
25 july, sun
sun2500:00+6wsw2978100 0.0 1013200
03:00+5wsw278252 0.0 1013158
06:00+10sw3861100 0.0 1014360
09:00+15w474689 0.0 10141663
12:00+17w4738100 0.0 10142436
15:00+16wsw4749100 0.0 10151357
18:00+17wsw375051 0.0 10151429
21:00+13sw3968100 0.0 1015273
26 july, mon
mon2600:00+13wsw3965100 0.0 1016312
03:00+11w3118231 0.1 1016402
06:00+11sw2796100 0.6 1016217
09:00+14w3779100 0.7 1015585
12:00+16w486689 0.0 1015697
15:00+20w585093 0.2 10121883
18:00+13nnw1497100 2.2 1013235
21:00+12nw389864 4.3 1013546
27 july, tue
tue2700:00+8wnw279934 0.1 1014210
03:00+7wnw299924 0.1 1015241
06:00+8wnw39905 0.0 1016457
09:00+12nw4767100 0.0 1015864
12:00+15nw585384 0.0 10151563
15:00+16wnw4950100 0.1 10142044
18:00+16nw4134999 0.0 10132462
21:00+11nnw266736 0.1 1013168
28 july, wed
wed2800:00+5nw11955 0.0 101410
03:00+4nw25974 0.0 1014111
06:00+9nw38705 0.0 1014591
09:00+13nw365286 0.0 10131161
12:00+17nw4640100 0.0 10111656
15:00+19wnw4634100 0.0 10092107
18:00+15wnw3754100 0.0 1008446
21:00+11ssw0096100 0.6 100813
29 july, thu
thu2900:00+11s129696 0.2 100641
03:00+9s11985 0.2 100512
06:00+12s019334 0.0 1005155
09:00+18nne116482 0.0 1004634
12:00+22nw1347100 0.0 10041495
15:00+24nw243939 0.0 10031926
18:00+22ne245199 0.0 1002212
21:00+15sw1183100 0.3 100311